Regional Weather Roundup
Issued by NWS

Current Version | Previous Version | Graphics & Text | Print | Product List | Glossary On
Versions: 1 2 3 4 5 6 7 8 9 10 11 12 13 14 15 16 17 18 19 20 21 22 23 24 25 26 27 28 29 30 31 32 33 34 35 36 37 38 39 40 41 42 43 44 45 46 47 48 49 50
000
ASUS42 KFFC 241203
RWRGA
WEATHER ROUNDUP FOR GEORGIA
NATIONAL WEATHER SERVICE PEACHTREE CITY GA
800 AM EDT THU JUN 24 2021

NOTE: "FAIR" INDICATES FEW OR NO CLOUDS BELOW 12,000 FEET WITH NO
SIGNIFICANT WEATHER AND/OR OBSTRUCTIONS TO VISIBILITY.

* = USE WITH CAUTION. THE STATIONS MARKED WITH AN ASTERISK MAY NOT
REPORT WEATHER SUCH AS PRECIPITATION, FOG, OR THUNDER AND ARE NOT
QUALITY CONTROLLED BY NWS.

THE REMARK "TC" DENOTES TEMPERATURE READING IN DEGREES CELSIUS.

GAZ001>058-241300-
NORTH GEORGIA

CITY           SKY/WX    TMP DP  RH WIND       PRES   REMARKS
ATLANTA        CLOUDY    72  67  84 SE12      30.22R
6HR MIN TEMP:  69; 6HR MAX TEMP:  72;

ATHENS         PTSUNNY   70  63  78 E8        30.24R
6HR MIN TEMP:  66; 6HR MAX TEMP:  71;

CHAMBLEE       CLOUDY    70  66  87 CALM      30.22R
6HR MIN TEMP:  69; 6HR MAX TEMP:  71;

PEACHTREE CITY CLOUDY    72  69  90 E8        30.20R
6HR MIN TEMP:  67; 6HR MAX TEMP:  72;

ROME           CLOUDY    72  65  78 NE5       30.20R
6HR MIN TEMP:  66; 6HR MAX TEMP:  74;

WEST ATLANTA   CLOUDY    72  67  84 SE8       30.21R
6HR MIN TEMP:  71; 6HR MAX TEMP:  74;

GAINESVILLE    PTSUNNY   68  62  81 E9        30.27R
6HR MIN TEMP:  67; 6HR MAX TEMP:  69;

CARTERSVILLE   CLOUDY    72  66  83 E5G12     30.21R


CITY           SKY/WX    TMP DP  RH WIND       PRES   REMARKS
DALTON*        SUNNY     70  63  78 S3        30.23R
LAWRENCEVILLE* CLOUDY    70  64  81 E13       30.24R
MARIETTA       CLOUDY    71  67  88 E9        30.22R
KENNESAW*      CLOUDY    71  67  87 E7        30.23R
CANTON*        CLOUDY    70  64  83 E7        30.26R
BLAIRSVILLE*   MOSUNNY   66  62  86 E9        30.28R
$$

GAZ059>098-102>109-241300-
CENTRAL GEORGIA

CITY           SKY/WX    TMP DP  RH WIND       PRES   REMARKS
AUGUSTA-BUSH   PTSUNNY   72  65  78 NE5       30.23R
6HR MIN TEMP:  65; 6HR MAX TEMP:  73;

AUGUSTA-DANIEL MOSUNNY   72  63  73 E8        30.25R
6HR MIN TEMP:  70; 6HR MAX TEMP:  74;

COLUMBUS       CLOUDY    72  67  84 SE6       30.16R
6HR MIN TEMP:  71; 6HR MAX TEMP:  76;

MACON          CLOUDY    73  68  84 E10       30.19R
6HR MIN TEMP:  71; 6HR MAX TEMP:  73;

ROBINS AFB     CLOUDY    73  70  91 E9        30.18R


CITY           SKY/WX    TMP DP  RH WIND       PRES   REMARKS
LAGRANGE*      CLOUDY    71  67  87 CALM      30.19R
SYLVANIA*      CLOUDY    70  65  85 SE6       30.22S
MILLEDGEVILLE* PTSUNNY   72  68  88 E7        30.22R
$$

GAZ099>101-110>166-241300-
SOUTH GEORGIA

CITY           SKY/WX    TMP DP  RH WIND       PRES   REMARKS
SAVANNAH       PTSUNNY   72  69  90 NE7       30.19R
6HR MIN TEMP:  70; 6HR MAX TEMP:  74;

VALDOSTA       FOG       74  72  93 VRB3      30.14R VSB 3/4
6HR MIN TEMP:  73; 6HR MAX TEMP:  74;

ALMA           CLOUDY    73  72  96 VRB5      30.17R
6HR MIN TEMP:  73; 6HR MAX TEMP:  75; 6HR PCP:  0.35;

ALBANY         CLOUDY    77  72  84 E7        30.16R
HUNTER AFB     CLOUDY    76  67  75 NE6       30.16R
MOODY AFB      CLOUDY    73  72  96 E6        30.15R
BRUNSWICK      CLOUDY    77  72  84 E13       30.16R


CITY           SKY/WX    TMP DP  RH WIND       PRES   REMARKS
BAINBRIDGE*    CLOUDY    73 N/A N/A E5        30.13R FOG
MOULTRIE*      CLOUDY    73  72  94 CALM      30.16R
VIDALIA*       CLOUDY    72  68  88 E7        30.20R
WAYCROSS*      RAIN      74  73  96 E7        30.16R
DOUGLAS*       DRIZZLE   74  73  97 E3        30.18R
$$



USA.gov is the U.S. government's official web portal to all federal, state and local government web resources and services.